Location: Bad Salzschlirf
(50.3750°N, 9.3000°E)
Time: 11:36:59
(UTC+01:00)

ISS - Pass Details

Date: 12 January 2019
Orbit: 404 x 407 km, 51.6° (Epoch: 16 January)

Event Time Altitude Azimuth Distance (km) Brightness Sun altitude
Exits shadow 06:36:44 10° 217° (SW) 1,458 -1.2 -15.6°
Drops below altitude 10° 06:36:51 10° 215° (SW) 1,464 -1.2 -15.6°
Sets 06:40:34 0° 171° (S) 2,317 0.4 -15.1°
